| time (UTC) | temp F | wind direction | speed knots | gust knots | rain 1hr in | rain 24hr in | rain mn in | humidity % | barometer mb |
| 20260506134544 | 56 | 360 | 0.0 | 0.9 | 0.09 | 0.09 | 0.09 | 94 | 1006.7 |
| 20260506133042 | 56 | 360 | 0.0 | 0.0 | 0.07 | 0.07 | 0.07 | 94 | 1007.1 |
| 20260506131543 | 56 | 360 | 0.0 | 0.0 | 0.05 | 0.05 | 0.05 | 94 | 1007.3 |
| 20260506130041 | 56 | 360 | 0.0 | 0.0 | 0.03 | 0.03 | 0.03 | 92 | 1007.7 |
| 20260506124541 | 57 | 360 | 0.0 | 0.0 | 0.00 | 0.00 | 0.00 | 90 | 1007.4 |
| 20260506123014 | 58 | 360 | 0.0 | 0.0 | 0.00 | 0.00 | 0.00 | 90 | 1006.8 |
| 20260506121509 | 57 | 360 | 0.0 | 0.0 | 0.00 | 0.00 | 0.00 | 88 | 1006.6 |
| 20260506120105 | 57 | 360 | 0.0 | 0.0 | 0.00 | 0.00 | 0.00 | 86 | 1006.9 |
| 20260506114543 | 58 | 360 | 0.0 | 0.0 | 0.00 | 0.00 | 0.00 | 87 | 1007.0 |
| 20260506113010 | 57 | 360 | 0.0 | 0.0 | 0.00 | 0.00 | 0.00 | 85 | 1006.8 |
| 20260506111506 | 57 | 360 | 0.0 | 0.0 | 0.00 | 0.00 | 0.00 | 83 | 1006.8 |
| 20260506110004 | 57 | 360 | 0.0 | 0.0 | 0.00 | 0.00 | 0.00 | 81 | 1006.9 |
| 20260506104504 | 57 | 360 | 0.0 | 0.0 | 0.00 | 0.00 | 0.00 | 83 | 1006.9 |
| 20260506103005 | 57 | 360 | 0.0 | 0.0 | 0.00 | 0.00 | 0.00 | 82 | 1006.4 |
| 20260506101503 | 57 | 360 | 0.0 | 0.0 | 0.00 | 0.00 | 0.00 | 83 | 1006.5 |
| 20260506100100 | 57 | 360 | 0.0 | 0.0 | 0.00 | 0.00 | 0.00 | 80 | 1006.3 |
| 20260506094600 | 57 | 360 | 0.0 | 0.0 | 0.00 | 0.00 | 0.00 | 80 | 1006.6 |
| 20260506093059 | 57 | 360 | 0.0 | 0.0 | 0.00 | 0.00 | 0.00 | 79 | 1006.5 |
| 20260506091559 | 57 | 360 | 0.0 | 0.0 | 0.00 | 0.00 | 0.00 | 79 | 1006.6 |
| 20260506090056 | 57 | 360 | 0.0 | 0.0 | 0.00 | 0.00 | 0.00 | 79 | 1006.6 |
| 20260506084556 | 57 | 360 | 0.0 | 0.0 | 0.00 | 0.00 | 0.00 | 79 | 1006.6 |
| 20260506083055 | 56 | 360 | 0.0 | 0.0 | 0.00 | 0.00 | 0.00 | 79 | 1006.9 |
| 20260506081555 | 56 | 360 | 0.0 | 0.0 | 0.00 | 0.00 | 0.00 | 82 | 1006.8 |
| 20260506073022 | 56 | 360 | 0.0 | 0.0 | 0.00 | 0.00 | 0.00 | 83 | 1006.7 |
| 20260506071522 | 55 | 360 | 0.0 | 0.0 | 0.00 | 0.00 | 0.00 | 84 | 1006.9 |
| 20260506061549 | 55 | 360 | 0.0 | 0.0 | 0.00 | 0.00 | 0.00 | 85 | 1007.2 |
| 20260506044551 | 56 | 360 | 0.0 | 0.0 | 0.00 | 0.00 | 0.00 | 83 | 1007.9 |
| 20260506043038 | 56 | 360 | 0.0 | 0.0 | 0.00 | 0.00 | 0.00 | 83 | 1007.8 |
| 20260506041546 | 56 | 360 | 0.0 | 0.0 | 0.00 | 0.00 | 0.00 | 82 | 1008.0 |
| 20260506040041 | 56 | 360 | 0.0 | 0.0 | 0.00 | 0.00 | 0.00 | 82 | 1008.2 |
| 20260506034533 | 56 | 360 | 0.0 | 0.0 | 0.00 | 0.00 | 0.00 | 80 | 1008.3 |
| 20260506033030 | 57 | 360 | 0.0 | 0.0 | 0.00 | 0.00 | 0.00 | 79 | 1008.2 |
| 20260506031531 | 58 | 360 | 0.0 | 0.0 | 0.00 | 0.00 | 0.00 | 79 | 1008.3 |
| 20260506030025 | 58 | 360 | 0.0 | 0.0 | 0.00 | 0.00 | 0.00 | 77 | 1008.2 |
| 20260506024552 | 59 | 360 | 0.0 | 0.0 | 0.00 | 0.00 | 0.00 | 74 | 1008.1 |
| 20260506023050 | 60 | 360 | 0.0 | 0.0 | 0.00 | 0.00 | 0.00 | 74 | 1008.1 |
| 20260506021546 | 61 | 360 | 0.0 | 0.0 | 0.00 | 0.00 | 0.00 | 73 | 1008.0 |
| 20260506020044 | 62 | 360 | 0.0 | 0.0 | 0.00 | 0.00 | 0.00 | 72 | 1008.1 |
| 20260506014540 | 62 | 360 | 0.0 | 0.0 | 0.00 | 0.00 | 0.00 | 69 | 1008.1 |
| 20260506013044 | 63 | 360 | 0.0 | 0.0 | 0.00 | 0.00 | 0.00 | 68 | 1007.9 |
| 20260506011533 | 64 | 360 | 0.0 | 0.0 | 0.00 | 0.00 | 0.00 | 66 | 1007.7 |
| 20260506010032 | 64 | 360 | 0.0 | 0.0 | 0.00 | 0.00 | 0.00 | 63 | 1007.5 |
| 20260506004533 | 66 | 360 | 0.0 | 0.0 | 0.00 | 0.00 | 0.00 | 62 | 1007.4 |
| 20260506003023 | 67 | 360 | 0.0 | 0.0 | 0.00 | 0.00 | 0.00 | 61 | 1007.2 |
| 20260506001518 | 68 | 360 | 0.0 | 0.0 | 0.00 | 0.00 | 0.00 | 61 | 1007.3 |
| 20260506000016 | 68 | 360 | 0.0 | 0.0 | 0.00 | 0.00 | 0.00 | 61 | 1007.0 |
| 20260505234524 | 69 | 360 | 0.0 | 0.0 | 0.00 | 0.00 | 0.00 | 58 | 1006.9 |
| 20260505233015 | 70 | 360 | 0.0 | 0.0 | 0.00 | 0.00 | 0.00 | 56 | 1006.9 |
| 20260505231510 | 71 | 360 | 0.0 | 0.9 | 0.00 | 0.00 | 0.00 | 55 | 1006.7 |
| 20260505230002 | 72 | 351 | 0.0 | 0.0 | 0.00 | 0.00 | 0.00 | 55 | 1006.7 |
| 20260505224559 | 73 | 351 | 0.0 | 0.0 | 0.00 | 0.00 | 0.00 | 51 | 1006.7 |
| 20260505223104 | 73 | 189 | 0.0 | 1.7 | 0.00 | 0.00 | 0.00 | 50 | 1006.6 |
| 20260505221528 | 73 | 141 | 0.0 | 2.6 | 0.00 | 0.00 | 0.00 | 48 | 1006.3 |
| 20260505220025 | 74 | 43 | 0.9 | 6.1 | 0.00 | 0.00 | 0.00 | 50 | 1006.3 |
| 20260505214524 | 73 | 57 | 1.7 | 7.0 | 0.00 | 0.00 | 0.00 | 49 | 1006.2 |
| 20260505213017 | 74 | 96 | 0.0 | 6.1 | 0.00 | 0.00 | 0.00 | 50 | 1006.2 |
| 20260505211515 | 75 | 57 | 1.7 | 7.8 | 0.00 | 0.00 | 0.00 | 47 | 1006.0 |
| 20260505210017 | 75 | 67 | 2.6 | 7.8 | 0.00 | 0.00 | 0.00 | 47 | 1006.2 |
| 20260505204522 | 76 | 106 | 5.2 | 13.0 | 0.00 | 0.00 | 0.00 | 45 | 1006.2 |
| 20260505203010 | 76 | 19 | 1.7 | 8.7 | 0.00 | 0.00 | 0.00 | 44 | 1005.8 |
| 20260505201507 | 76 | 99 | 2.6 | 9.6 | 0.00 | 0.00 | 0.00 | 45 | 1005.8 |
| 20260505200012 | 76 | 59 | 5.2 | 13.0 | 0.00 | 0.00 | 0.00 | 43 | 1005.9 |
| 20260505194501 | 77 | 98 | 2.6 | 14.8 | 0.00 | 0.00 | 0.00 | 44 | 1005.7 |
| 20260505193101 | 78 | 184 | 5.2 | 19.1 | 0.00 | 0.00 | 0.00 | 42 | 1005.8 |
| 20260505191600 | 78 | 89 | 4.3 | 13.0 | 0.00 | 0.00 | 0.00 | 44 | 1005.8 |
| 20260505184555 | 78 | 79 | 4.3 | 14.8 | 0.00 | 0.00 | 0.00 | 45 | 1006.5 |
| 20260505183053 | 78 | 24 | 5.2 | 15.6 | 0.00 | 0.00 | 0.00 | 43 | 1006.4 |
| 20260505181552 | 78 | 346 | 1.7 | 17.4 | 0.00 | 0.00 | 0.00 | 45 | 1006.6 |
| 20260505180051 | 78 | 70 | 2.6 | 12.2 | 0.00 | 0.00 | 0.00 | 45 | 1007.2 |
| 20260505174549 | 78 | 117 | 4.3 | 11.3 | 0.00 | 0.00 | 0.00 | 44 | 1007.2 |
| 20260505173049 | 78 | 92 | 2.6 | 13.9 | 0.00 | 0.00 | 0.00 | 47 | 1007.3 |
| 20260505171545 | 78 | 119 | 2.6 | 8.7 | 0.00 | 0.00 | 0.00 | 47 | 1007.1 |
| 20260505170043 | 77 | 130 | 2.6 | 12.2 | 0.00 | 0.00 | 0.00 | 49 | 1007.4 |
| 20260505164538 | 77 | 63 | 2.6 | 8.7 | 0.00 | 0.00 | 0.00 | 49 | 1007.6 |
| 20260505163035 | 76 | 69 | 3.5 | 10.4 | 0.00 | 0.00 | 0.00 | 49 | 1007.9 |
| 20260505161534 | 77 | 140 | 3.5 | 12.2 | 0.00 | 0.00 | 0.00 | 49 | 1008.1 |
| 20260505153059 | 75 | 175 | 4.3 | 11.3 | 0.00 | 0.00 | 0.00 | 51 | 1008.6 |
| 20260505151606 | 74 | 128 | 6.1 | 12.2 | 0.00 | 0.00 | 0.00 | 53 | 1008.5 |